Voltar ao catálogo

KL-ALPHA B

AtivoCiênciaPO
NORAD 44786·PAYLOAD·🇩🇪 Germany

Lançado Nov 17, 2019 de Jiuquan Satellite Launch Center

Loading…

Próximas Passagens (próximas 24 horas)

TLE

AtualizadoSource: Space-Track

Época: Sep 14, 2026, 13:28 UTC

1 44786U 19077B   26257.56160912 -.00000026  00000-0 -54134-4 0  9996
2 44786  88.9175 210.2680 0024173 249.2581 110.5982 13.56008694337298

Acompanhe KL-ALPHA B em tempo real com AllMySat

Download on the App Store